Location: Marse
(42.1502°N, 110.9866°W)
Time: 18:53:31
(UTC+00:00)

ITUPSAT 1 - Pass Details

Date: 09 July 2022
Orbit: 701 x 711 km, 98.6° (Epoch: 08 August)

Event Time Altitude Azimuth Distance (km) Brightness Sun altitude
Rises 03:42:40 0° 15° (NNE) 3,113 ? -7.0°
Reaches altitude 10° 03:44:57 10° 18° (NNE) 2,191 ? -7.3°
Maximum altitude 03:49:44 71° 103° (ESE) 751 ? -8.0°
Drops below altitude 10° 03:54:30 10° 187° (S) 2,179 ? -8.7°
Sets 03:56:46 0° 190° (S) 3,094 ? -9.0°
